Change the Weather History Date:

Saturday, August 24, 2013

  Actual Average Record
Temperature  
Mean Temperature 68 °F -  
Max Temperature 77 °F 78 °F 88 °F (2010)
Min Temperature 62 °F 60 °F 60 °F (1960)
Cooling Degree Days 4    
Growing Degree Days 18 (Base 50)    
Moisture  
Dew Point 61 °F    
Average Humidity 83    
Maximum Humidity 100    
Minimum Humidity 58    
Precipitation  
Precipitation 0.00 in - - ()
Sea Level Pressure  
Sea Level Pressure 29.82 in    
Wind  
Wind Speed 2 mph (WNW)    
Max Wind Speed 10 mph    
Max Gust Speed 17 mph    
Visibility 7 miles    
Events      
Averages and records for this station are not official NWS values.
T = Trace of Precipitation, MM = Missing Value Source: NWS Daily Summary

Daily Weather History Graph

Daily Weather History Graph

Search for Another Location

Airport or City:

Trip Planner

Search our weather history database for the weather conditions in past years. The results will help you decide how hot, cold, wet, or windy it might be!

Date:

Astronomy

Aug. 24, 2013 Rise Set
Actual Time 6:17 AM PDT 7:21 PM PDT
Civil Twilight 5:52 AM PDT 7:47 PM PDT
Nautical Twilight 5:22 AM PDT 8:17 PM PDT
Astronomical Twilight 4:51 AM PDT 8:48 PM PDT
Moon 9:37 PM PDT (8/24) 10:05 AM PDT (8/24)
Length of Visible Light 13h 54m
Length of Day
13h 04m
Waning Gibbous, 83% of the Moon is Illuminated
Aug 24
Waning Gibbous
Aug 28
Last Quarter
Sep 5
New
Sep 12
First Quarter
Sep 19
Full

Hourly Weather History & Observations

Time (PDT) Temp. Dew Point Humidity Pressure Visibility Wind Dir Wind Speed Gust Speed Precip Events Conditions
12:53 AM 63.0 °F 61.0 °F 93% 29.81 in 9.0 mi West 3.5 mph - N/A   Clear
1:15 AM 62.6 °F 60.8 °F 94% 29.83 in 9.0 mi West 3.5 mph - N/A   Scattered Clouds
1:25 AM 62.6 °F 62.6 °F 100% 29.83 in 8.0 mi NW 3.5 mph - N/A   Mostly Cloudy
1:53 AM 63.0 °F 63.0 °F 100% 29.81 in 6.0 mi Calm Calm - N/A   Overcast
2:37 AM 62.6 °F 62.6 °F 100% 29.82 in 2.5 mi Calm Calm - N/A   Overcast
2:53 AM 63.0 °F 63.0 °F 100% 29.81 in 2.5 mi Calm Calm - N/A   Overcast
3:17 AM 62.6 °F 62.6 °F 100% 29.82 in 3.0 mi Calm Calm - N/A   Overcast
3:53 AM 64.0 °F 63.0 °F 96% 29.81 in 4.0 mi Calm Calm - N/A   Overcast
4:53 AM 64.0 °F 63.0 °F 96% 29.81 in 5.0 mi Calm Calm - N/A   Overcast
5:53 AM 64.0 °F 62.1 °F 93% 29.81 in 5.0 mi Calm Calm - N/A   Overcast
6:53 AM 64.0 °F 62.1 °F 93% 29.82 in 4.0 mi Calm Calm - N/A   Overcast
7:34 AM 64.4 °F 60.8 °F 88% 29.82 in 2.0 mi Calm Calm - N/A   Overcast
7:41 AM 64.4 °F 62.6 °F 94% 29.82 in 2.0 mi Calm Calm - N/A   Overcast
7:53 AM 64.0 °F 62.1 °F 93% 29.82 in 2.0 mi Calm Calm - N/A   Overcast
8:48 AM 68.0 °F 62.6 °F 83% 29.83 in 8.0 mi WNW 3.5 mph - N/A   Clear
8:53 AM 68.0 °F 62.1 °F 81% 29.82 in 8.0 mi Calm Calm - N/A   Clear
9:00 AM 69.8 °F 62.6 °F 78% 29.83 in 7.0 mi Calm Calm - N/A   Partly Cloudy
9:53 AM 73.9 °F 62.1 °F 66% 29.83 in 10.0 mi Calm Calm - N/A   Clear
10:53 AM 75.9 °F 62.1 °F 62% 29.84 in 10.0 mi Variable 5.8 mph - N/A   Clear
11:53 AM 75.0 °F 61.0 °F 62% 29.83 in 10.0 mi Variable 5.8 mph - N/A   Clear
12:53 PM 73.9 °F 60.1 °F 62% 29.83 in 10.0 mi WNW 10.4 mph 17.3 mph N/A   Clear
1:53 PM 73.9 °F 60.1 °F 62% 29.81 in 10.0 mi West 10.4 mph 17.3 mph N/A   Clear
2:53 PM 73.0 °F 60.1 °F 64% 29.79 in 10.0 mi WNW 6.9 mph - N/A   Clear
3:53 PM 75.9 °F 60.1 °F 58% 29.79 in 10.0 mi Variable 5.8 mph - N/A   Clear
4:53 PM 72.0 °F 59.0 °F 64% 29.81 in 10.0 mi WNW 4.6 mph - N/A   Clear
5:53 PM 73.9 °F 60.1 °F 62% 29.80 in 10.0 mi West 4.6 mph - N/A   Partly Cloudy
6:53 PM 69.1 °F 59.0 °F 70% 29.80 in 10.0 mi WNW 5.8 mph - N/A   Clear
7:53 PM 64.9 °F 59.0 °F 81% 29.84 in 10.0 mi WNW 8.1 mph - N/A   Clear
8:53 PM 64.0 °F 60.1 °F 87% 29.86 in 10.0 mi West 5.8 mph - N/A   Clear
9:53 PM 63.0 °F 60.1 °F 90% 29.88 in 10.0 mi Calm Calm - N/A   Clear
10:53 PM 64.9 °F 60.1 °F 84% 29.88 in 10.0 mi Calm Calm - N/A   Clear
11:53 PM 63.0 °F 60.1 °F 90% 29.88 in 10.0 mi Calm Calm - N/A   Clear